Hourly Data Report for September 25, 2017

All times are specified in Local Standard Time (LST). Add 1 hour to adjust for Daylight Saving Time where and when it is observed.

RANKIN INLET A
NUNAVUT

62°48'38.000" N
92°06'53.000" W
32.30 m
2303405
71083
YRT

Download Data

Hourly Data (September 2017)
Hourly Data Report for September 25, 2017
Temp Definition
°C
Dew Point Temp Definition
°C
Rel Hum Definition
%
Wind Dir Definition
10's deg

Wind Spd Definition
km/h
Visibility Definition
km
Stn Press Definition
kPa
Hmdx Definition


Wind Chill Definition


Weather Definition


TIME
00:00 Legend Double Dagger 0.1 -1.2 91 27 12 24.1 101.65     Clear
01:00 Legend Double Dagger -0.2 -1.6 91 29 18 24.1 101.65   -5 LegendNANA
02:00 Legend Double Dagger -0.6 -2.5 86 29 17 24.1 101.66   -6 LegendNANA
03:00 Legend Double Dagger -0.7 -2.6 87 28 16 24.1 101.66   -5 Clear
04:00 Legend Double Dagger -0.7 -2.8 86 29 18 24.1 101.64   -6 LegendNANA
05:00 Legend Double Dagger -1.5 -3.1 89 30 13 24.1 101.64   -6 LegendNANA
06:00 Legend Double Dagger -1.8 -2.9 93 31 16 24.1 101.62   -7 Clear
07:00 Legend Double Dagger -0.4 -1.6 92 32 16 24.1 101.62   -5 LegendNANA
08:00 Legend Double Dagger 0.8 -0.7 90 34 13 24.1 101.63     LegendNANA
09:00 Legend Double Dagger 2.0 0.3 88 34 11 24.1 101.63     Clear
10:00 Legend Double Dagger 3.6 1.1 84 33 9 24.1 101.64     LegendNANA
11:00 Legend Double Dagger 4.5 1.0 78 35 8 24.1 101.63     LegendNANA
12:00 Legend Double Dagger 4.9 0.9 75 34 8 24.1 101.64     Clear
13:00 Legend Double Dagger 5.8 0.5 69 33 7 24.1 101.64     LegendNANA
14:00 Legend Double Dagger 5.8 0.5 68 18 4 24.1 101.62     LegendNANA
15:00 Legend Double Dagger 6.5 0.0 63 26 9 24.1 101.63     Mainly Clear
16:00 Legend Double Dagger 6.3 1.0 68 19 7 24.1 101.64     LegendNANA
17:00 Legend Double Dagger 5.3 1.6 77 16 7 24.1 101.63     LegendNANA
18:00 Legend Double Dagger 4.5 2.1 84 17 9 24.1 101.64     Mostly Cloudy
19:00 Legend Double Dagger 5.0 1.1 76 22 18 24.1 101.63     LegendNANA
20:00 Legend Double Dagger 4.7 0.9 76 21 18 24.1 101.63     LegendNANA
21:00 Legend Double Dagger 4.4 0.9 78 21 20 24.1 101.64     Mostly Cloudy
22:00 Legend Double Dagger 4.1 1.4 83 20 18 24.1 101.63     LegendNANA
23:00 Legend Double Dagger 4.1 1.1 81 21 21 24.1 101.64     LegendNANA

Notes on Data Quality.

Legend

  • E = Estimated
  • M = Missing
  • NA = Not Available
  • ‡ = Partner data that is not subject to review by the National Climate Archives
Date modified: